Location: Budapest
(47.4979°N, 19.0402°E)
Time: 05:00:32
(UTC+02:00)

Envisat - Pass Details

Date: 15 October 2017
Orbit: 764 x 766 km, 98.2° (Epoch: 20 October)

Event Time Altitude Azimuth Distance (km) Brightness Sun altitude
Exits shadow 20:42:23 64° 239° (WSW) 849 3.2 -28.6°
Maximum altitude 20:42:39 65° 258° (WSW) 842 3.2 -28.6°
Drops below altitude 10° 20:47:43 10° 341° (NNW) 2,313 5.9 -29.4°
Sets 20:50:04 0° 344° (NNW) 3,243 6.7 -29.8°
